| time (UTC) | temp F | wind direction | speed MPH | gust MPH | rain 1hr in | rain 24hr in | rain mn in | humidity % | barometer mb |
| 20260510104532 | 35 | 317 | 0.0 | 0.0 | 0.00 | 0.00 | 0.00 | 80 | 1013.1 |
| 20260510103030 | 36 | 317 | 0.0 | 0.0 | 0.00 | 0.00 | 0.00 | 79 | 1013.3 |
| 20260510101528 | 37 | 317 | 0.0 | 0.0 | 0.00 | 0.00 | 0.00 | 79 | 1013.0 |
| 20260510100026 | 37 | 317 | 0.0 | 0.0 | 0.00 | 0.00 | 0.00 | 79 | 1013.1 |
| 20260510094523 | 37 | 316 | 0.0 | 0.0 | 0.00 | 0.00 | 0.00 | 77 | 1013.3 |
| 20260510093032 | 38 | 317 | 0.0 | 0.0 | 0.00 | 0.00 | 0.00 | 77 | 1013.2 |
| 20260510091518 | 39 | 317 | 0.0 | 0.0 | 0.00 | 0.00 | 0.00 | 76 | 1013.3 |
| 20260510090022 | 40 | 317 | 0.0 | 0.0 | 0.00 | 0.00 | 0.00 | 74 | 1013.2 |
| 20260510084517 | 40 | 317 | 0.0 | 0.0 | 0.00 | 0.00 | 0.00 | 74 | 1013.4 |
| 20260510083012 | 41 | 317 | 0.0 | 0.0 | 0.00 | 0.00 | 0.00 | 72 | 1013.4 |
| 20260510081509 | 41 | 317 | 0.0 | 0.0 | 0.00 | 0.00 | 0.00 | 73 | 1013.4 |
| 20260510080009 | 41 | 317 | 0.0 | 0.0 | 0.00 | 0.00 | 0.00 | 71 | 1013.4 |
| 20260510074505 | 42 | 317 | 0.0 | 0.0 | 0.00 | 0.00 | 0.00 | 69 | 1013.3 |
| 20260510073002 | 42 | 317 | 0.0 | 0.0 | 0.00 | 0.00 | 0.00 | 69 | 1013.3 |
| 20260510071601 | 43 | 317 | 0.0 | 0.0 | 0.00 | 0.00 | 0.00 | 67 | 1013.4 |
| 20260510070057 | 44 | 316 | 0.0 | 0.0 | 0.00 | 0.00 | 0.00 | 66 | 1013.2 |
| 20260510064606 | 45 | 316 | 0.0 | 0.0 | 0.00 | 0.00 | 0.00 | 64 | 1013.3 |
| 20260510063056 | 46 | 317 | 0.0 | 0.0 | 0.00 | 0.00 | 0.00 | 63 | 1013.3 |
| 20260510061558 | 46 | 316 | 0.0 | 0.0 | 0.00 | 0.00 | 0.00 | 60 | 1013.3 |
| 20260510060055 | 48 | 317 | 0.0 | 0.0 | 0.00 | 0.00 | 0.00 | 58 | 1013.4 |
| 20260510054555 | 49 | 316 | 0.0 | 0.0 | 0.00 | 0.00 | 0.00 | 57 | 1013.5 |
| 20260510053056 | 50 | 317 | 0.0 | 0.0 | 0.00 | 0.00 | 0.00 | 53 | 1013.6 |
| 20260510051558 | 52 | 317 | 0.0 | 0.0 | 0.00 | 0.00 | 0.00 | 51 | 1013.6 |
| 20260510050053 | 53 | 317 | 0.0 | 0.0 | 0.00 | 0.00 | 0.00 | 49 | 1013.5 |
| 20260510044627 | 54 | 317 | 0.0 | 0.0 | 0.00 | 0.00 | 0.00 | 46 | 1013.3 |
| 20260510043053 | 56 | 317 | 0.0 | 0.0 | 0.00 | 0.00 | 0.00 | 42 | 1013.1 |
| 20260510041553 | 58 | 317 | 0.0 | 0.0 | 0.00 | 0.00 | 0.00 | 39 | 1013.0 |
| 20260510040052 | 61 | 317 | 0.0 | 0.0 | 0.00 | 0.00 | 0.00 | 35 | 1013.1 |
| 20260510034551 | 64 | 317 | 0.0 | 0.0 | 0.00 | 0.00 | 0.00 | 32 | 1013.0 |
| 20260510033053 | 66 | 316 | 0.0 | 0.0 | 0.00 | 0.00 | 0.00 | 30 | 1012.8 |
| 20260510031552 | 68 | 317 | 0.0 | 0.0 | 0.00 | 0.00 | 0.00 | 27 | 1012.6 |
| 20260510030050 | 71 | 317 | 0.0 | 0.0 | 0.00 | 0.00 | 0.00 | 27 | 1012.5 |
| 20260510024550 | 72 | 316 | 0.0 | 0.0 | 0.00 | 0.00 | 0.00 | 25 | 1012.4 |
| 20260510023052 | 73 | 327 | 0.0 | 0.0 | 0.00 | 0.00 | 0.00 | 25 | 1012.3 |
| 20260510021548 | 75 | 284 | 0.0 | 0.0 | 0.00 | 0.00 | 0.00 | 23 | 1012.2 |
| 20260510020050 | 76 | 285 | 0.0 | 0.0 | 0.00 | 0.00 | 0.00 | 17 | 1012.1 |
| 20260510014551 | 77 | 285 | 0.0 | 0.0 | 0.00 | 0.00 | 0.00 | 14 | 1012.0 |
| 20260510013047 | 78 | 276 | 0.0 | 0.0 | 0.00 | 0.00 | 0.00 | 12 | 1012.1 |
| 20260510011552 | 78 | 237 | 0.0 | 0.0 | 0.00 | 0.00 | 0.00 | 14 | 1012.2 |
| 20260510010050 | 78 | 234 | 0.0 | 0.0 | 0.00 | 0.00 | 0.00 | 14 | 1012.2 |
| 20260510004542 | 78 | 219 | 0.0 | 0.0 | 0.00 | 0.00 | 0.00 | 14 | 1012.2 |
| 20260510003042 | 78 | 171 | 0.0 | 0.0 | 0.00 | 0.00 | 0.00 | 13 | 1012.3 |
| 20260510001540 | 78 | 212 | 0.0 | 0.0 | 0.00 | 0.00 | 0.00 | 15 | 1012.5 |
| 20260510000037 | 78 | 17 | 0.0 | 0.0 | 0.00 | 0.00 | 0.00 | 15 | 1012.7 |
| 20260509234535 | 79 | 296 | 0.0 | 0.0 | 0.00 | 0.00 | 0.00 | 15 | 1013.0 |
| 20260509233036 | 79 | 214 | 0.0 | 0.0 | 0.00 | 0.00 | 0.00 | 14 | 1013.2 |
| 20260509231532 | 79 | 198 | 0.0 | 0.0 | 0.00 | 0.00 | 0.00 | 15 | 1013.3 |
| 20260509230029 | 79 | 207 | 0.0 | 0.0 | 0.00 | 0.00 | 0.00 | 15 | 1013.5 |
| 20260509224532 | 79 | 319 | 0.0 | 0.0 | 0.00 | 0.00 | 0.00 | 14 | 1013.7 |
| 20260509223023 | 79 | 209 | 1.0 | 0.0 | 0.00 | 0.00 | 0.00 | 14 | 1014.0 |
| 20260509221523 | 79 | 190 | 0.0 | 0.0 | 0.00 | 0.00 | 0.00 | 14 | 1014.3 |
| 20260509220018 | 79 | 211 | 0.0 | 0.0 | 0.00 | 0.00 | 0.00 | 15 | 1014.5 |
| 20260509214516 | 78 | 336 | 0.0 | 0.0 | 0.00 | 0.00 | 0.00 | 15 | 1014.8 |
| 20260509213014 | 78 | 118 | 0.0 | 0.0 | 0.00 | 0.00 | 0.00 | 12 | 1015.1 |
| 20260509211511 | 78 | 102 | 0.0 | 0.0 | 0.00 | 0.00 | 0.00 | 13 | 1015.2 |
| 20260509210010 | 77 | 155 | 0.0 | 0.0 | 0.00 | 0.00 | 0.00 | 14 | 1015.4 |
| 20260509204508 | 77 | 90 | 0.0 | 0.0 | 0.00 | 0.00 | 0.00 | 13 | 1015.6 |
| 20260509203007 | 77 | 178 | 1.0 | 0.0 | 0.00 | 0.00 | 0.00 | 15 | 1015.6 |
| 20260509201504 | 76 | 271 | 0.0 | 0.0 | 0.00 | 0.00 | 0.00 | 18 | 1015.8 |
| 20260509200109 | 74 | 355 | 0.0 | 0.0 | 0.00 | 0.00 | 0.00 | 16 | 1015.9 |
| 20260509194557 | 74 | 306 | 1.0 | 0.0 | 0.00 | 0.00 | 0.00 | 17 | 1016.2 |
| 20260509193119 | 73 | 185 | 0.0 | 0.0 | 0.00 | 0.00 | 0.00 | 21 | 1016.4 |
| 20260509191607 | 72 | 242 | 0.0 | 0.0 | 0.00 | 0.00 | 0.00 | 24 | 1016.6 |
| 20260509190047 | 69 | 195 | 0.0 | 0.0 | 0.00 | 0.00 | 0.00 | 27 | 1016.8 |
| 20260509184543 | 67 | 194 | 1.0 | 0.0 | 0.00 | 0.00 | 0.00 | 29 | 1017.1 |
| 20260509183042 | 66 | 180 | 0.0 | 0.0 | 0.00 | 0.00 | 0.00 | 32 | 1017.3 |
| 20260509181539 | 65 | 181 | 0.0 | 0.0 | 0.00 | 0.00 | 0.00 | 29 | 1017.3 |
| 20260509180034 | 63 | 181 | 0.0 | 0.0 | 0.00 | 0.00 | 0.00 | 31 | 1017.5 |
| 20260509174528 | 61 | 178 | 0.0 | 0.0 | 0.00 | 0.00 | 0.00 | 34 | 1017.7 |
| 20260509173025 | 61 | 153 | 0.0 | 0.0 | 0.00 | 0.00 | 0.00 | 40 | 1017.7 |
| 20260509171522 | 59 | 116 | 0.0 | 0.0 | 0.00 | 0.00 | 0.00 | 43 | 1017.7 |
| 20260509170018 | 58 | 39 | 0.0 | 0.0 | 0.00 | 0.00 | 0.00 | 45 | 1018.1 |
| 20260509164514 | 55 | 18 | 0.0 | 0.0 | 0.00 | 0.00 | 0.00 | 52 | 1018.1 |
| 20260509163010 | 52 | 308 | 0.0 | 0.0 | 0.00 | 0.00 | 0.00 | 63 | 1018.3 |
| 20260509161506 | 50 | 334 | 0.0 | 0.0 | 0.00 | 0.00 | 0.00 | 67 | 1018.5 |
| 20260509160101 | 48 | 355 | 0.0 | 0.0 | 0.00 | 0.00 | 0.00 | 73 | 1018.5 |
| 20260509154556 | 46 | 355 | 0.0 | 0.0 | 0.00 | 0.00 | 0.00 | 78 | 1018.6 |
| 20260509153053 | 43 | 355 | 0.0 | 0.0 | 0.00 | 0.00 | 0.00 | 84 | 1018.6 |
| 20260509151552 | 40 | 355 | 0.0 | 0.0 | 0.00 | 0.00 | 0.00 | 89 | 1018.9 |
| 20260509150050 | 38 | 355 | 0.0 | 0.0 | 0.00 | 0.00 | 0.00 | 91 | 1019.0 |
| 20260509144550 | 35 | 355 | 0.0 | 0.0 | 0.00 | 0.00 | 0.00 | 94 | 1019.1 |
| 20260509143050 | 33 | 355 | 0.0 | 0.0 | 0.00 | 0.00 | 0.00 | 94 | 1019.1 |
| 20260509141548 | 30 | 355 | 0.0 | 0.0 | 0.00 | 0.00 | 0.00 | 93 | 1019.1 |
| 20260509140048 | 29 | 355 | 0.0 | 0.0 | 0.00 | 0.00 | 0.00 | 92 | 1019.1 |
| 20260509134547 | 29 | 355 | 0.0 | 0.0 | 0.00 | 0.00 | 0.00 | 91 | 1018.8 |
| 20260509133045 | 29 | 355 | 0.0 | 0.0 | 0.00 | 0.00 | 0.00 | 91 | 1018.9 |
| 20260509131549 | 29 | 355 | 0.0 | 0.0 | 0.00 | 0.00 | 0.00 | 90 | 1018.8 |
| 20260509130057 | 29 | 355 | 0.0 | 0.0 | 0.00 | 0.00 | 0.00 | 90 | 1018.8 |
| 20260509124544 | 29 | 355 | 0.0 | 0.0 | 0.00 | 0.00 | 0.00 | 90 | 1018.6 |
| 20260509123044 | 29 | 355 | 0.0 | 0.0 | 0.00 | 0.00 | 0.00 | 89 | 1018.6 |
| 20260509121539 | 30 | 355 | 0.0 | 0.0 | 0.00 | 0.00 | 0.00 | 89 | 1018.7 |
| 20260509120035 | 31 | 355 | 0.0 | 0.0 | 0.00 | 0.00 | 0.00 | 88 | 1018.9 |
| 20260509114533 | 31 | 355 | 0.0 | 0.0 | 0.00 | 0.00 | 0.00 | 88 | 1019.0 |
| 20260509113031 | 32 | 355 | 0.0 | 0.0 | 0.00 | 0.00 | 0.00 | 89 | 1019.0 |
| 20260509111531 | 32 | 355 | 0.0 | 0.0 | 0.00 | 0.00 | 0.00 | 87 | 1018.9 |
| 20260509110025 | 33 | 355 | 0.0 | 0.0 | 0.00 | 0.00 | 0.00 | 87 | 1019.1 |